Forside
METAR-TAF:

METAR-TAF

Lufthavne :

Aurora, Illinois, USA

Breddekreds: 41-46-12N, længdekreds: 088-28-53W, højde: 215 m

Aktuelle vejr

Denne rapport blev lavet for 40 minutter siden, kl. 01:52 UTC
Vind 5 kt fra nordnordvest
Temperatur 15°C
Fugtighed 59%
Tryk 1013 hPa
Sigt: 16.1 km
Brudte skyer i en højde af 8000 ft

METAR: KARR 220152Z 34005KT 10SM BKN080 15/07 A2991 RMK AO2 SLP125 T01500067

Tid: 21:32 (02:32 UTC)


TAF: fraværende

Vejrobservationer og prognoser fra mere end 4000 lufthavne (METAR og TAF).

De gule og røde prikker repræsenterer de meteorologiske stationer.

Flyt musen over at se navnet på stationen.

Så klik over at se vejr observationer og prognoser.

At skifte det kort: Klik på de grønne knapper med et sort kors for at zoome ind; på den grønne knap med en bindestreg for at zoome ud; eller på de grønne pile for tilstødende kort.


METAR-TAF: